Weather in Sovetskoye

Russia / Kurgan Oblast     54°37′27″N   64°31′46″E
temp.,
°C
wind,
m/s
gust,
m/s
humid.,
%
clouds,
%
prec.,
mm/h
press.,
hPa
HPBL,
m
9 march, tue
tue923:00−6sw81787100 0.5 1010801
02:00−6sw71687100 0.0 1010568
05:00−6ssw71588100 0.0 1011556
08:00−6ssw91592100 0.5 1009702
11:00−6sw91587100 0.6 1009769
14:00−5sw91487100 0.0 1009846
17:00−4sw71387100 0.1 1011623
20:00−7sw4992100 0.0 1012199
10 march, wed
wed1023:00−9ssw3495100 0.0 101245
02:00−10s2396100 0.0 101032
05:00−8se2496100 0.1 1008127
08:00−7se4796100 0.9 1006284
11:00−6sse4695100 1.6 1003346
14:00−4sse5795100 0.7 1001429
17:00−3s5996100 1.7 999542
20:00−6wsw81380100 1.2 998528
11 march, thu
thu1123:00−11ssw5128763 1.2 999256
02:00−13ssw613880 0.0 999380
05:00−16ssw6139149 0.0 1000439
08:00−15ssw61293100 0.1 1002449
11:00−14w5793100 0.3 1004482
14:00−13nw7990100 0.5 1006834
17:00−15nw61089100 0.7 1009758
20:00−17wnw41092100 0.1 1012457
12 march, fri
fri1223:00−19w379471 0.1 1015162
02:00−17wnw41093100 0.1 1016352
05:00−21w599286 0.1 1017174
08:00−20wsw5109488 0.0 1018249
11:00−14w698785 0.0 1019567
14:00−12w698599 0.0 1020625
17:00−12wsw388897 0.0 1021343
20:00−16wsw449224 0.0 102252
13 march, sat
sat1323:00−17wsw458912 0.0 102469
02:00−18wsw46890 0.0 102582
05:00−18wsw47890 0.0 1026104
08:00−18wsw47890 0.0 1026124
11:00−13wsw47870 0.0 1027274
14:00−10wsw47860 0.0 1027469
17:00−10wsw369022 0.0 1027273
20:00−14sw349460 0.0 102754